カタログに戻る

STARLINK-35244

運用中通信VLEO
NORAD 65829·PAYLOAD·🇺🇸 United States

打ち上げ Sep 29, 2025 から Vandenberg Space Force Base

Loading…

次のパス (今後24時間)

TLE

最新Source: CelesTrak SupGP

元期: Sep 14, 2026, 15:15 UTC

1 65829C 25221G   26257.63590278  .00008132  00000+0  26161-3 0  2573
2 65829  53.1571 292.2894 0001173  79.2972 159.4877 15.31685595    18

AllMySatでSTARLINK-35244をリアルタイム追跡

Download on the App Store